| time (UTC) | temp F | wind direction | speed MPH | gust MPH | rain 1hr in | rain 24hr in | rain mn in | humidity % | barometer mb |
| 20260903035503 | 85 | 291 | 8.0 | 18.0 | 0.00 | 0.00 | 0.00 | 28 | 1007.0 |
| 20260903035003 | 86 | 301 | 7.0 | 15.0 | 0.00 | 0.00 | 0.00 | 26 | 1006.9 |
| 20260903034503 | 86 | 308 | 5.0 | 12.0 | 0.00 | 0.00 | 0.00 | 25 | 1006.9 |
| 20260903034003 | 87 | 307 | 9.0 | 17.0 | 0.00 | 0.00 | 0.00 | 24 | 1006.9 |
| 20260903033503 | 87 | 311 | 6.0 | 16.0 | 0.00 | 0.00 | 0.00 | 24 | 1006.8 |
| 20260903033003 | 87 | 296 | 9.0 | 17.0 | 0.00 | 0.00 | 0.00 | 23 | 1006.7 |
| 20260903032503 | 87 | 289 | 7.0 | 20.0 | 0.00 | 0.00 | 0.00 | 23 | 1006.6 |
| 20260903032003 | 88 | 298 | 7.0 | 20.0 | 0.00 | 0.00 | 0.00 | 21 | 1006.5 |
| 20260903031503 | 88 | 296 | 5.0 | 14.0 | 0.00 | 0.00 | 0.00 | 21 | 1006.4 |
| 20260903031002 | 88 | 300 | 9.0 | 17.0 | 0.00 | 0.00 | 0.00 | 23 | 1006.3 |
| 20260903030503 | 89 | 290 | 8.0 | 18.0 | 0.00 | 0.00 | 0.00 | 23 | 1006.3 |
| 20260903030003 | 89 | 305 | 9.0 | 15.0 | 0.00 | 0.00 | 0.00 | 22 | 1006.3 |
| 20260903025503 | 90 | 292 | 10.0 | 18.0 | 0.00 | 0.00 | 0.00 | 21 | 1006.1 |
| 20260903025004 | 90 | 293 | 7.0 | 18.0 | 0.00 | 0.00 | 0.00 | 20 | 1006.1 |
| 20260903024503 | 90 | 301 | 9.0 | 15.0 | 0.00 | 0.00 | 0.00 | 21 | 1006.0 |
| 20260903024004 | 91 | 287 | 7.0 | 18.0 | 0.00 | 0.00 | 0.00 | 21 | 1006.0 |
| 20260903023504 | 91 | 294 | 10.0 | 21.0 | 0.00 | 0.00 | 0.00 | 20 | 1005.8 |
| 20260903022503 | 92 | 293 | 12.0 | 23.0 | 0.00 | 0.00 | 0.00 | 19 | 1005.9 |
| 20260903022004 | 92 | 294 | 11.0 | 23.0 | 0.00 | 0.00 | 0.00 | 18 | 1005.8 |
| 20260903021503 | 92 | 281 | 6.0 | 15.0 | 0.00 | 0.00 | 0.00 | 18 | 1005.8 |
| 20260903020003 | 93 | 292 | 7.0 | 18.0 | 0.00 | 0.00 | 0.00 | 17 | 1005.9 |
| 20260903015503 | 94 | 294 | 7.0 | 14.0 | 0.00 | 0.00 | 0.00 | 16 | 1005.9 |
| 20260903015004 | 94 | 286 | 7.0 | 14.0 | 0.00 | 0.00 | 0.00 | 15 | 1005.9 |
| 20260903014503 | 94 | 295 | 7.0 | 15.0 | 0.00 | 0.00 | 0.00 | 16 | 1005.9 |
| 20260903014003 | 95 | 294 | 6.0 | 18.0 | 0.00 | 0.00 | 0.00 | 15 | 1005.9 |
| 20260903013503 | 95 | 289 | 7.0 | 15.0 | 0.00 | 0.00 | 0.00 | 14 | 1006.0 |
| 20260903013004 | 96 | 298 | 9.0 | 17.0 | 0.00 | 0.00 | 0.00 | 13 | 1006.0 |
| 20260903012503 | 96 | 293 | 6.0 | 13.0 | 0.00 | 0.00 | 0.00 | 12 | 1006.0 |
| 20260903012003 | 97 | 278 | 7.0 | 12.0 | 0.00 | 0.00 | 0.00 | 13 | 1006.0 |
| 20260903011503 | 97 | 298 | 5.0 | 10.0 | 0.00 | 0.00 | 0.00 | 13 | 1006.0 |
| 20260903011004 | 97 | 289 | 9.0 | 16.0 | 0.00 | 0.00 | 0.00 | 13 | 1005.9 |
| 20260903010503 | 97 | 294 | 5.0 | 14.0 | 0.00 | 0.00 | 0.00 | 12 | 1006.0 |
| 20260903010003 | 98 | 303 | 5.0 | 15.0 | 0.00 | 0.00 | 0.00 | 11 | 1006.1 |
| 20260903005003 | 98 | 300 | 7.0 | 13.0 | 0.00 | 0.00 | 0.00 | 11 | 1006.0 |
| 20260903004503 | 98 | 295 | 6.0 | 13.0 | 0.00 | 0.00 | 0.00 | 10 | 1006.1 |
| 20260903004003 | 98 | 299 | 7.0 | 12.0 | 0.00 | 0.00 | 0.00 | 10 | 1006.1 |
| 20260903003503 | 98 | 295 | 7.0 | 16.0 | 0.00 | 0.00 | 0.00 | 10 | 1006.0 |
| 20260903003004 | 99 | 300 | 7.0 | 15.0 | 0.00 | 0.00 | 0.00 | 11 | 1006.0 |
| 20260903002503 | 99 | 300 | 9.0 | 18.0 | 0.00 | 0.00 | 0.00 | 10 | 1006.1 |
| 20260903001504 | 100 | 295 | 5.0 | 9.0 | 0.00 | 0.00 | 0.00 | 9 | 1006.3 |
| 20260903001003 | 100 | 289 | 4.0 | 10.0 | 0.00 | 0.00 | 0.00 | 10 | 1006.3 |
| 20260903000503 | 100 | 301 | 5.0 | 12.0 | 0.00 | 0.00 | 0.00 | 9 | 1006.4 |
| 20260903000003 | 101 | 292 | 7.0 | 13.0 | 0.00 | 0.00 | 0.00 | 9 | 1006.4 |
| 20260902235503 | 100 | 309 | 4.0 | 12.0 | 0.00 | 0.00 | 0.00 | 9 | 1006.4 |
| 20260902235004 | 100 | 301 | 4.0 | 12.0 | 0.00 | 0.00 | 0.00 | 10 | 1006.5 |
| 20260902234503 | 100 | 285 | 7.0 | 13.0 | 0.00 | 0.00 | 0.00 | 9 | 1006.4 |
| 20260902234003 | 100 | 286 | 6.0 | 13.0 | 0.00 | 0.00 | 0.00 | 9 | 1006.5 |
| 20260902233503 | 101 | 242 | 9.0 | 14.0 | 0.00 | 0.00 | 0.00 | 9 | 1006.5 |
| 20260902233003 | 101 | 329 | 6.0 | 12.0 | 0.00 | 0.00 | 0.00 | 9 | 1006.6 |
| 20260902232503 | 101 | 297 | 5.0 | 13.0 | 0.00 | 0.00 | 0.00 | 9 | 1006.8 |
| 20260902232003 | 101 | 295 | 5.0 | 13.0 | 0.00 | 0.00 | 0.00 | 9 | 1006.8 |
| 20260902231504 | 101 | 298 | 5.0 | 12.0 | 0.00 | 0.00 | 0.00 | 9 | 1006.8 |
| 20260902231004 | 100 | 356 | 5.0 | 10.0 | 0.00 | 0.00 | 0.00 | 10 | 1006.8 |
| 20260902230503 | 101 | 297 | 4.0 | 13.0 | 0.00 | 0.00 | 0.00 | 9 | 1006.8 |
| 20260902230003 | 101 | 280 | 8.0 | 17.0 | 0.00 | 0.00 | 0.00 | 9 | 1006.8 |
| 20260902225503 | 101 | 288 | 6.0 | 14.0 | 0.00 | 0.00 | 0.00 | 9 | 1006.9 |
| 20260902225004 | 101 | 297 | 4.0 | 12.0 | 0.00 | 0.00 | 0.00 | 9 | 1006.9 |
| 20260902224503 | 101 | 299 | 6.0 | 12.0 | 0.00 | 0.00 | 0.00 | 9 | 1006.9 |
| 20260902223503 | 102 | 258 | 6.0 | 14.0 | 0.00 | 0.00 | 0.00 | 9 | 1007.1 |
| 20260902223004 | 102 | 329 | 5.0 | 12.0 | 0.00 | 0.00 | 0.00 | 9 | 1007.1 |
| 20260902222503 | 102 | 285 | 3.0 | 12.0 | 0.00 | 0.00 | 0.00 | 9 | 1007.3 |
| 20260902222003 | 101 | 278 | 5.0 | 10.0 | 0.00 | 0.00 | 0.00 | 9 | 1007.4 |
| 20260902221503 | 101 | 33 | 2.0 | 8.0 | 0.00 | 0.00 | 0.00 | 8 | 1007.4 |
| 20260902221003 | 101 | 264 | 4.0 | 8.0 | 0.00 | 0.00 | 0.00 | 9 | 1007.4 |
| 20260902220004 | 101 | 225 | 2.0 | 5.0 | 0.00 | 0.00 | 0.00 | 11 | 1007.5 |
| 20260902215003 | 100 | 356 | 2.0 | 3.0 | 0.00 | 0.00 | 0.00 | 11 | 1007.7 |
| 20260902214003 | 100 | 20 | 2.0 | 5.0 | 0.00 | 0.00 | 0.00 | 9 | 1007.9 |
| 20260902213503 | 101 | 69 | 5.0 | 9.0 | 0.00 | 0.00 | 0.00 | 9 | 1007.9 |
| 20260902213003 | 101 | 118 | 6.0 | 10.0 | 0.00 | 0.00 | 0.00 | 9 | 1007.9 |
| 20260902212504 | 100 | 117 | 5.0 | 8.0 | 0.00 | 0.00 | 0.00 | 9 | 1008.0 |
| 20260902212003 | 99 | 174 | 1.0 | 6.0 | 0.00 | 0.00 | 0.00 | 9 | 1008.0 |
| 20260902211503 | 100 | 132 | 3.0 | 8.0 | 0.00 | 0.00 | 0.00 | 9 | 1008.1 |
| 20260902211003 | 100 | 88 | 5.0 | 8.0 | 0.00 | 0.00 | 0.00 | 10 | 1008.2 |
| 20260902210504 | 99 | 124 | 4.0 | 8.0 | 0.00 | 0.00 | 0.00 | 10 | 1008.2 |
| 20260902210003 | 100 | 132 | 3.0 | 7.0 | 0.00 | 0.00 | 0.00 | 10 | 1008.3 |
| 20260902205504 | 100 | 184 | 1.0 | 3.0 | 0.00 | 0.00 | 0.00 | 10 | 1008.4 |
| 20260902205003 | 98 | 275 | 0.0 | 3.0 | 0.00 | 0.00 | 0.00 | 11 | 1008.4 |
| 20260902204503 | 98 | 240 | 2.0 | 6.0 | 0.00 | 0.00 | 0.00 | 11 | 1008.5 |
| 20260902203503 | 98 | 146 | 2.0 | 7.0 | 0.00 | 0.00 | 0.00 | 10 | 1008.7 |
| 20260902203003 | 98 | 105 | 3.0 | 12.0 | 0.00 | 0.00 | 0.00 | 11 | 1008.7 |
| 20260902202003 | 97 | 164 | 5.0 | 9.0 | 0.00 | 0.00 | 0.00 | 10 | 1009.0 |
| 20260902201503 | 98 | 142 | 5.0 | 9.0 | 0.00 | 0.00 | 0.00 | 10 | 1009.0 |
| 20260902200504 | 98 | 46 | 5.0 | 10.0 | 0.00 | 0.00 | 0.00 | 11 | 1009.1 |
| 20260902200003 | 98 | 105 | 3.0 | 9.0 | 0.00 | 0.00 | 0.00 | 11 | 1009.1 |
| 20260902195503 | 97 | 124 | 3.0 | 9.0 | 0.00 | 0.00 | 0.00 | 12 | 1009.2 |
| 20260902195003 | 98 | 113 | 4.0 | 8.0 | 0.00 | 0.00 | 0.00 | 12 | 1009.3 |
| 20260902194503 | 97 | 85 | 5.0 | 8.0 | 0.00 | 0.00 | 0.00 | 11 | 1009.4 |
| 20260902194003 | 97 | 107 | 6.0 | 12.0 | 0.00 | 0.00 | 0.00 | 12 | 1009.5 |
| 20260902193503 | 96 | 243 | 3.0 | 7.0 | 0.00 | 0.00 | 0.00 | 12 | 1009.5 |
| 20260902193003 | 96 | 272 | 3.0 | 5.0 | 0.00 | 0.00 | 0.00 | 14 | 1009.5 |
| 20260902192503 | 95 | 172 | 2.0 | 10.0 | 0.00 | 0.00 | 0.00 | 12 | 1009.6 |
| 20260902192004 | 96 | 125 | 2.0 | 8.0 | 0.00 | 0.00 | 0.00 | 12 | 1009.5 |
| 20260902191503 | 95 | 111 | 5.0 | 8.0 | 0.00 | 0.00 | 0.00 | 13 | 1009.5 |
| 20260902190504 | 95 | 108 | 1.0 | 3.0 | 0.00 | 0.00 | 0.00 | 12 | 1009.6 |
| 20260902190004 | 96 | 112 | 6.0 | 9.0 | 0.00 | 0.00 | 0.00 | 12 | 1009.6 |
| 20260902185504 | 96 | 116 | 5.0 | 8.0 | 0.00 | 0.00 | 0.00 | 11 | 1009.6 |
| 20260902185003 | 95 | 129 | 1.0 | 7.0 | 0.00 | 0.00 | 0.00 | 11 | 1009.8 |
| 20260902184504 | 96 | 144 | 2.0 | 8.0 | 0.00 | 0.00 | 0.00 | 12 | 1009.9 |
| 20260902184003 | 96 | 118 | 3.0 | 8.0 | 0.00 | 0.00 | 0.00 | 13 | 1010.0 |
| 20260902183503 | 95 | 37 | 3.0 | 7.0 | 0.00 | 0.00 | 0.00 | 13 | 1010.0 |
| 20260902183004 | 95 | 100 | 5.0 | 7.0 | 0.00 | 0.00 | 0.00 | 12 | 1010.0 |
| 20260902182503 | 94 | 127 | 2.0 | 5.0 | 0.00 | 0.00 | 0.00 | 12 | 1010.0 |
| 20260902182003 | 94 | 61 | 0.0 | 5.0 | 0.00 | 0.00 | 0.00 | 13 | 1010.0 |
| 20260902181504 | 94 | 110 | 2.0 | 5.0 | 0.00 | 0.00 | 0.00 | 12 | 1010.1 |
| 20260902181003 | 94 | 178 | 2.0 | 5.0 | 0.00 | 0.00 | 0.00 | 14 | 1010.1 |
| 20260902180504 | 94 | 71 | 1.0 | 5.0 | 0.00 | 0.00 | 0.00 | 14 | 1010.1 |
| 20260902180006 | 94 | 83 | 6.0 | 9.0 | 0.00 | 0.00 | 0.00 | 13 | 1010.1 |
| 20260902175503 | 93 | 95 | 1.0 | 5.0 | 0.00 | 0.00 | 0.00 | 13 | 1010.2 |
| 20260902174503 | 92 | 97 | 3.0 | 8.0 | 0.00 | 0.00 | 0.00 | 14 | 1010.3 |
| 20260902174003 | 92 | 133 | 1.0 | 5.0 | 0.00 | 0.00 | 0.00 | 14 | 1010.3 |
| 20260902173003 | 92 | 214 | 1.0 | 3.0 | 0.00 | 0.00 | 0.00 | 15 | 1010.3 |
| 20260902172503 | 92 | 195 | 2.0 | 3.0 | 0.00 | 0.00 | 0.00 | 14 | 1010.3 |
| 20260902172003 | 92 | 101 | 2.0 | 3.0 | 0.00 | 0.00 | 0.00 | 13 | 1010.2 |
| 20260902171504 | 91 | 232 | 3.0 | 6.0 | 0.00 | 0.00 | 0.00 | 14 | 1010.2 |
| 20260902171003 | 91 | 136 | 1.0 | 5.0 | 0.00 | 0.00 | 0.00 | 14 | 1010.2 |
| 20260902170502 | 91 | 123 | 2.0 | 3.0 | 0.00 | 0.00 | 0.00 | 15 | 1010.1 |
| 20260902170003 | 90 | 236 | 1.0 | 3.0 | 0.00 | 0.00 | 0.00 | 15 | 1010.1 |
| 20260902165503 | 89 | 157 | 1.0 | 3.0 | 0.00 | 0.00 | 0.00 | 15 | 1010.1 |
| 20260902165003 | 89 | 202 | 2.0 | 5.0 | 0.00 | 0.00 | 0.00 | 16 | 1010.1 |
| 20260902164004 | 89 | 159 | 2.0 | 5.0 | 0.00 | 0.00 | 0.00 | 16 | 1010.0 |
| 20260902163503 | 89 | 139 | 2.0 | 5.0 | 0.00 | 0.00 | 0.00 | 16 | 1010.0 |
| 20260902163003 | 89 | 193 | 2.0 | 6.0 | 0.00 | 0.00 | 0.00 | 16 | 1010.0 |
| 20260902162504 | 88 | 180 | 1.0 | 6.0 | 0.00 | 0.00 | 0.00 | 16 | 1010.0 |
| 20260902162003 | 88 | 176 | 3.0 | 7.0 | 0.00 | 0.00 | 0.00 | 18 | 1010.0 |
| 20260902161503 | 88 | 193 | 3.0 | 5.0 | 0.00 | 0.00 | 0.00 | 16 | 1010.0 |
| 20260902161003 | 88 | 165 | 3.0 | 6.0 | 0.00 | 0.00 | 0.00 | 16 | 1010.0 |
| 20260902160503 | 87 | 204 | 3.0 | 5.0 | 0.00 | 0.00 | 0.00 | 15 | 1010.0 |
| 20260902160005 | 87 | 198 | 1.0 | 6.0 | 0.00 | 0.00 | 0.00 | 18 | 1010.0 |
| 20260902155503 | 87 | 208 | 4.0 | 6.0 | 0.00 | 0.00 | 0.00 | 17 | 1010.0 |
| 20260902155003 | 87 | 225 | 4.0 | 7.0 | 0.00 | 0.00 | 0.00 | 16 | 1010.0 |
| 20260902154503 | 87 | 215 | 5.0 | 8.0 | 0.00 | 0.00 | 0.00 | 16 | 1010.0 |
| 20260902154003 | 87 | 238 | 5.0 | 8.0 | 0.00 | 0.00 | 0.00 | 14 | 1009.9 |
| 20260902153003 | 87 | 259 | 5.0 | 10.0 | 0.00 | 0.00 | 0.00 | 13 | 1009.7 |
| 20260902152003 | 86 | 282 | 5.0 | 10.0 | 0.00 | 0.00 | 0.00 | 13 | 1009.6 |
| 20260902151504 | 86 | 275 | 3.0 | 12.0 | 0.00 | 0.00 | 0.00 | 13 | 1009.6 |
| 20260902151003 | 85 | 261 | 5.0 | 10.0 | 0.00 | 0.00 | 0.00 | 13 | 1009.6 |
| 20260902150503 | 85 | 276 | 5.0 | 9.0 | 0.00 | 0.00 | 0.00 | 14 | 1009.6 |
| 20260902145503 | 83 | 251 | 2.0 | 6.0 | 0.00 | 0.00 | 0.00 | 17 | 1009.7 |
| 20260902145003 | 83 | 225 | 5.0 | 9.0 | 0.00 | 0.00 | 0.00 | 16 | 1009.7 |
| 20260902144003 | 81 | 253 | 1.0 | 3.0 | 0.00 | 0.00 | 0.00 | 20 | 1009.8 |
| 20260902143004 | 80 | 238 | 2.0 | 5.0 | 0.00 | 0.00 | 0.00 | 22 | 1009.7 |
| 20260902142504 | 81 | 234 | 4.0 | 6.0 | 0.00 | 0.00 | 0.00 | 21 | 1009.7 |
| 20260902142003 | 82 | 240 | 3.0 | 8.0 | 0.00 | 0.00 | 0.00 | 15 | 1009.6 |
| 20260902141503 | 82 | 272 | 3.0 | 7.0 | 0.00 | 0.00 | 0.00 | 16 | 1009.5 |
| 20260902141003 | 82 | 271 | 3.0 | 9.0 | 0.00 | 0.00 | 0.00 | 16 | 1009.5 |
| 20260902140003 | 81 | 283 | 4.0 | 8.0 | 0.00 | 0.00 | 0.00 | 17 | 1009.5 |
| 20260902135504 | 81 | 308 | 2.0 | 10.0 | 0.00 | 0.00 | 0.00 | 17 | 1009.4 |
| 20260902135004 | 81 | 298 | 4.0 | 8.0 | 0.00 | 0.00 | 0.00 | 17 | 1009.4 |
| 20260902134503 | 81 | 303 | 5.0 | 10.0 | 0.00 | 0.00 | 0.00 | 17 | 1009.4 |
| 20260902134003 | 81 | 299 | 6.0 | 14.0 | 0.00 | 0.00 | 0.00 | 17 | 1009.2 |
| 20260902133503 | 80 | 287 | 6.0 | 13.0 | 0.00 | 0.00 | 0.00 | 18 | 1009.3 |
| 20260902132503 | 80 | 313 | 3.0 | 12.0 | 0.00 | 0.00 | 0.00 | 18 | 1009.3 |
| 20260902132003 | 80 | 297 | 4.0 | 13.0 | 0.00 | 0.00 | 0.00 | 18 | 1009.4 |
| 20260902131003 | 80 | 291 | 6.0 | 17.0 | 0.00 | 0.00 | 0.00 | 19 | 1009.2 |
| 20260902130503 | 80 | 304 | 6.0 | 14.0 | 0.00 | 0.00 | 0.00 | 19 | 1009.2 |
| 20260902130003 | 80 | 294 | 5.0 | 12.0 | 0.00 | 0.00 | 0.00 | 19 | 1009.1 |
| 20260902125503 | 80 | 292 | 5.0 | 14.0 | 0.00 | 0.00 | 0.00 | 19 | 1009.1 |
| 20260902125003 | 80 | 296 | 6.0 | 14.0 | 0.00 | 0.00 | 0.00 | 20 | 1009.1 |
| 20260902124503 | 80 | 309 | 5.0 | 15.0 | 0.00 | 0.00 | 0.00 | 20 | 1009.1 |
| 20260902124003 | 80 | 294 | 6.0 | 12.0 | 0.00 | 0.00 | 0.00 | 20 | 1009.1 |
| 20260902123503 | 80 | 308 | 3.0 | 12.0 | 0.00 | 0.00 | 0.00 | 21 | 1009.3 |
| 20260902122503 | 79 | 295 | 3.0 | 8.0 | 0.00 | 0.00 | 0.00 | 21 | 1009.1 |
| 20260902122003 | 79 | 311 | 6.0 | 13.0 | 0.00 | 0.00 | 0.00 | 22 | 1009.2 |
| 20260902121003 | 79 | 307 | 5.0 | 12.0 | 0.00 | 0.00 | 0.00 | 22 | 1009.1 |
| 20260902120003 | 80 | 309 | 3.0 | 13.0 | 0.00 | 0.00 | 0.00 | 22 | 1009.2 |
| 20260902115503 | 80 | 302 | 7.0 | 13.0 | 0.00 | 0.00 | 0.00 | 21 | 1009.2 |
| 20260902115003 | 80 | 297 | 5.0 | 13.0 | 0.00 | 0.00 | 0.00 | 21 | 1009.2 |
| 20260902114503 | 79 | 298 | 8.0 | 15.0 | 0.00 | 0.00 | 0.00 | 22 | 1009.2 |
| 20260902114003 | 80 | 307 | 5.0 | 15.0 | 0.00 | 0.00 | 0.00 | 22 | 1009.2 |
| 20260902113503 | 79 | 309 | 5.0 | 15.0 | 0.00 | 0.00 | 0.00 | 22 | 1009.0 |
| 20260902113003 | 79 | 295 | 5.0 | 12.0 | 0.00 | 0.00 | 0.00 | 23 | 1009.1 |
| 20260902112503 | 79 | 294 | 6.0 | 12.0 | 0.00 | 0.00 | 0.00 | 23 | 1009.2 |
| 20260902112004 | 79 | 291 | 4.0 | 10.0 | 0.00 | 0.00 | 0.00 | 23 | 1009.2 |
| 20260902111503 | 79 | 307 | 3.0 | 9.0 | 0.00 | 0.00 | 0.00 | 24 | 1009.4 |
| 20260902111004 | 79 | 295 | 3.0 | 10.0 | 0.00 | 0.00 | 0.00 | 24 | 1009.2 |
| 20260902110503 | 79 | 311 | 5.0 | 13.0 | 0.00 | 0.00 | 0.00 | 24 | 1009.1 |
| 20260902110005 | 79 | 303 | 4.0 | 10.0 | 0.00 | 0.00 | 0.00 | 25 | 1009.2 |
| 20260902105503 | 79 | 302 | 3.0 | 8.0 | 0.00 | 0.00 | 0.00 | 25 | 1009.2 |
| 20260902105003 | 79 | 308 | 6.0 | 12.0 | 0.00 | 0.00 | 0.00 | 25 | 1009.1 |
| 20260902104503 | 79 | 314 | 3.0 | 10.0 | 0.00 | 0.00 | 0.00 | 25 | 1009.1 |
| 20260902103003 | 79 | 302 | 5.0 | 12.0 | 0.00 | 0.00 | 0.00 | 26 | 1009.1 |
| 20260902102503 | 79 | 286 | 7.0 | 12.0 | 0.00 | 0.00 | 0.00 | 26 | 1009.1 |
| 20260902102004 | 79 | 300 | 6.0 | 15.0 | 0.00 | 0.00 | 0.00 | 25 | 1009.3 |
| 20260902101003 | 79 | 290 | 6.0 | 14.0 | 0.00 | 0.00 | 0.00 | 25 | 1009.3 |
| 20260902100503 | 79 | 311 | 5.0 | 13.0 | 0.00 | 0.00 | 0.00 | 26 | 1009.3 |
| 20260902100003 | 79 | 299 | 5.0 | 16.0 | 0.00 | 0.00 | 0.00 | 26 | 1009.2 |
| 20260902095503 | 79 | 302 | 4.0 | 10.0 | 0.00 | 0.00 | 0.00 | 26 | 1009.2 |
| 20260902095004 | 79 | 311 | 3.0 | 9.0 | 0.00 | 0.00 | 0.00 | 26 | 1009.3 |
| 20260902094504 | 80 | 315 | 4.0 | 12.0 | 0.00 | 0.00 | 0.00 | 26 | 1009.2 |
| 20260902094003 | 80 | 310 | 5.0 | 16.0 | 0.00 | 0.00 | 0.00 | 26 | 1009.2 |
| 20260902093503 | 80 | 302 | 6.0 | 10.0 | 0.00 | 0.00 | 0.00 | 26 | 1009.1 |
| 20260902093004 | 80 | 301 | 7.0 | 13.0 | 0.00 | 0.00 | 0.00 | 27 | 1009.2 |
| 20260902092004 | 80 | 314 | 7.0 | 12.0 | 0.00 | 0.00 | 0.00 | 27 | 1009.3 |
| 20260902091503 | 80 | 308 | 6.0 | 15.0 | 0.00 | 0.00 | 0.00 | 27 | 1009.3 |
| 20260902091003 | 80 | 309 | 6.0 | 17.0 | 0.00 | 0.00 | 0.00 | 27 | 1009.3 |
| 20260902090003 | 80 | 305 | 4.0 | 15.0 | 0.00 | 0.00 | 0.00 | 27 | 1009.4 |
| 20260902085503 | 80 | 295 | 7.0 | 14.0 | 0.00 | 0.00 | 0.00 | 26 | 1009.3 |
| 20260902084503 | 81 | 298 | 7.0 | 12.0 | 0.00 | 0.00 | 0.00 | 26 | 1009.4 |
| 20260902084003 | 80 | 297 | 8.0 | 15.0 | 0.00 | 0.00 | 0.00 | 26 | 1009.4 |
| 20260902083503 | 80 | 285 | 7.0 | 14.0 | 0.00 | 0.00 | 0.00 | 26 | 1009.4 |
| 20260902083004 | 81 | 289 | 7.0 | 15.0 | 0.00 | 0.00 | 0.00 | 26 | 1009.5 |
| 20260902082504 | 81 | 309 | 7.0 | 15.0 | 0.00 | 0.00 | 0.00 | 26 | 1009.4 |
| 20260902081503 | 80 | 293 | 6.0 | 14.0 | 0.00 | 0.00 | 0.00 | 26 | 1009.2 |
| 20260902081003 | 80 | 303 | 3.0 | 8.0 | 0.00 | 0.00 | 0.00 | 27 | 1009.2 |
| 20260902075504 | 80 | 308 | 3.0 | 8.0 | 0.00 | 0.00 | 0.00 | 26 | 1009.1 |
| 20260902075003 | 81 | 305 | 2.0 | 8.0 | 0.00 | 0.00 | 0.00 | 27 | 1009.1 |
| 20260902074503 | 81 | 313 | 5.0 | 12.0 | 0.00 | 0.00 | 0.00 | 27 | 1009.0 |
| 20260902074003 | 81 | 288 | 5.0 | 10.0 | 0.00 | 0.00 | 0.00 | 27 | 1009.0 |
| 20260902073003 | 81 | 314 | 5.0 | 12.0 | 0.00 | 0.00 | 0.00 | 27 | 1008.9 |
| 20260902072503 | 81 | 315 | 5.0 | 14.0 | 0.00 | 0.00 | 0.00 | 27 | 1008.9 |
| 20260902070503 | 81 | 290 | 5.0 | 12.0 | 0.00 | 0.00 | 0.00 | 28 | 1008.5 |
| 20260902070005 | 81 | 315 | 4.0 | 9.0 | 0.00 | 0.00 | 0.00 | 29 | 1008.5 |
| 20260902065503 | 82 | 294 | 6.0 | 12.0 | 0.00 | 0.00 | 0.00 | 28 | 1008.4 |
| 20260902065003 | 82 | 293 | 9.0 | 15.0 | 0.00 | 0.00 | 0.00 | 28 | 1008.4 |
| 20260902064003 | 82 | 296 | 7.0 | 14.0 | 0.00 | 0.00 | 0.00 | 28 | 1008.4 |
| 20260902063503 | 82 | 308 | 7.0 | 16.0 | 0.00 | 0.00 | 0.00 | 28 | 1008.4 |
| 20260902063003 | 82 | 307 | 7.0 | 14.0 | 0.00 | 0.00 | 0.00 | 27 | 1008.4 |
| 20260902062503 | 82 | 304 | 7.0 | 16.0 | 0.00 | 0.00 | 0.00 | 26 | 1008.4 |
| 20260902062004 | 82 | 301 | 9.0 | 18.0 | 0.00 | 0.00 | 0.00 | 26 | 1008.3 |
| 20260902060503 | 83 | 298 | 5.0 | 10.0 | 0.00 | 0.00 | 0.00 | 24 | 1008.4 |
| 20260902060003 | 84 | 296 | 5.0 | 13.0 | 0.00 | 0.00 | 0.00 | 24 | 1008.3 |
| 20260902055003 | 84 | 292 | 5.0 | 15.0 | 0.00 | 0.00 | 0.00 | 24 | 1008.4 |
| 20260902054504 | 84 | 310 | 5.0 | 9.0 | 0.00 | 0.00 | 0.00 | 24 | 1008.4 |
| 20260902053503 | 84 | 320 | 4.0 | 10.0 | 0.00 | 0.00 | 0.00 | 23 | 1008.4 |
| 20260902053003 | 84 | 314 | 5.0 | 12.0 | 0.00 | 0.00 | 0.00 | 23 | 1008.4 |
| 20260902052503 | 85 | 299 | 4.0 | 10.0 | 0.00 | 0.00 | 0.00 | 22 | 1008.4 |
| 20260902052003 | 85 | 303 | 5.0 | 12.0 | 0.00 | 0.00 | 0.00 | 21 | 1008.4 |
| 20260902050504 | 85 | 314 | 6.0 | 10.0 | 0.00 | 0.00 | 0.00 | 21 | 1008.4 |
| 20260902050006 | 86 | 322 | 4.0 | 10.0 | 0.00 | 0.00 | 0.00 | 20 | 1008.4 |
| 20260902045503 | 86 | 319 | 3.0 | 6.0 | 0.00 | 0.00 | 0.00 | 20 | 1008.3 |
| 20260902045003 | 86 | 319 | 5.0 | 13.0 | 0.00 | 0.00 | 0.00 | 19 | 1008.3 |
| 20260902044004 | 86 | 314 | 5.0 | 12.0 | 0.00 | 0.00 | 0.00 | 20 | 1008.2 |
| 20260902043504 | 87 | 328 | 3.0 | 13.0 | 0.00 | 0.00 | 0.00 | 19 | 1008.1 |
| 20260902043004 | 87 | 290 | 2.0 | 12.0 | 0.00 | 0.00 | 0.00 | 19 | 1008.0 |
| 20260902042503 | 87 | 289 | 4.0 | 8.0 | 0.00 | 0.00 | 0.00 | 19 | 1007.9 |
| 20260902042003 | 87 | 319 | 3.0 | 7.0 | 0.00 | 0.00 | 0.00 | 19 | 1007.8 |
| 20260902041503 | 87 | 311 | 3.0 | 8.0 | 0.00 | 0.00 | 0.00 | 19 | 1007.8 |
| 20260902041004 | 87 | 310 | 5.0 | 12.0 | 0.00 | 0.00 | 0.00 | 19 | 1007.8 |
| 20260902040003 | 87 | 312 | 6.0 | 17.0 | 0.00 | 0.00 | 0.00 | 20 | 1007.5 |